<?xml version="1.0" encoding="UTF-8" standalone="no" ?>
<gpx xmlns="http://www.topografix.com/GPX/1/1" xmlns:xsi="http://www.w3.org/2001/XMLSchema-instance" xsi:schemaLocation="http://www.topografix.com/GPX/1/1 http://www.topografix.com/GPX/1/1/gpx.xsd" version="1.1" creator="VisuGPX - https://www.visugpx.com">
  <metadata>
    <name>3 batailles Boucle N°6</name>
  </metadata>
  <trk>
    <name><![CDATA[3 batailles Boucle N°6]]></name>
    <extensions>
      <line xmlns="http://www.topografix.com/GPX/gpx_style/0/2">
        <color>d58400</color>
        <width>4</width>
      </line>
    </extensions>
    <trkseg>
      <trkpt lat="46.67893" lon="0.54148">
        <ele>120.4</ele>
        <time>2022-07-11T07:37:41Z</time>
      </trkpt>
      <trkpt lat="46.67927" lon="0.54393">
        <ele>124</ele>
      </trkpt>
      <trkpt lat="46.67964" lon="0.54405">
        <ele>123</ele>
        <time>2022-07-11T07:39:07Z</time>
      </trkpt>
      <trkpt lat="46.68158" lon="0.54542">
        <ele>123</ele>
        <time>2022-07-11T07:42:00Z</time>
      </trkpt>
      <trkpt lat="46.68327" lon="0.54617">
        <ele>125</ele>
        <time>2022-07-11T07:44:21Z</time>
      </trkpt>
      <trkpt lat="46.68453" lon="0.5461">
        <ele>120</ele>
        <time>2022-07-11T07:46:02Z</time>
      </trkpt>
      <trkpt lat="46.68647" lon="0.54678">
        <ele>106</ele>
        <time>2022-07-11T07:48:42Z</time>
      </trkpt>
      <trkpt lat="46.69003" lon="0.54481">
        <ele>66</ele>
        <time>2022-07-11T07:53:47Z</time>
      </trkpt>
      <trkpt lat="46.69057" lon="0.5449">
        <ele>64</ele>
        <time>2022-07-11T07:54:30Z</time>
      </trkpt>
      <trkpt lat="46.69059" lon="0.54375">
        <ele>65</ele>
        <time>2022-07-11T07:55:34Z</time>
      </trkpt>
      <trkpt lat="46.69084" lon="0.54238">
        <ele>79</ele>
        <time>2022-07-11T07:56:51Z</time>
      </trkpt>
      <trkpt lat="46.69188" lon="0.54114">
        <ele>98</ele>
        <time>2022-07-11T07:58:39Z</time>
      </trkpt>
      <trkpt lat="46.69249" lon="0.53956">
        <ele>107</ele>
        <time>2022-07-11T08:00:19Z</time>
      </trkpt>
      <trkpt lat="46.69295" lon="0.54117">
        <ele>108</ele>
        <time>2022-07-11T08:01:54Z</time>
      </trkpt>
      <trkpt lat="46.69338" lon="0.54211">
        <ele>108</ele>
        <time>2022-07-11T08:02:56Z</time>
      </trkpt>
      <trkpt lat="46.69563" lon="0.54059">
        <ele>121</ele>
        <time>2022-07-11T08:06:15Z</time>
      </trkpt>
      <trkpt lat="46.69526" lon="0.5381">
        <ele>127</ele>
        <time>2022-07-11T08:08:35Z</time>
      </trkpt>
      <trkpt lat="46.69561" lon="0.53783">
        <ele>128</ele>
        <time>2022-07-11T08:09:07Z</time>
      </trkpt>
      <trkpt lat="46.6968" lon="0.53801">
        <ele>127</ele>
        <time>2022-07-11T08:10:42Z</time>
      </trkpt>
      <trkpt lat="46.69719" lon="0.53886">
        <ele>125</ele>
        <time>2022-07-11T08:11:39Z</time>
      </trkpt>
      <trkpt lat="46.69792" lon="0.53892">
        <ele>121</ele>
        <time>2022-07-11T08:12:37Z</time>
      </trkpt>
      <trkpt lat="46.70123" lon="0.53671">
        <ele>115</ele>
        <time>2022-07-11T08:17:29Z</time>
      </trkpt>
      <trkpt lat="46.70445" lon="0.53331">
        <ele>120</ele>
        <time>2022-07-11T08:22:47Z</time>
      </trkpt>
      <trkpt lat="46.70514" lon="0.53115">
        <ele>125</ele>
        <time>2022-07-11T08:24:58Z</time>
      </trkpt>
      <trkpt lat="46.70633" lon="0.53043">
        <ele>123</ele>
        <time>2022-07-11T08:26:41Z</time>
      </trkpt>
      <trkpt lat="46.70758" lon="0.53088">
        <ele>121</ele>
        <time>2022-07-11T08:28:24Z</time>
      </trkpt>
      <trkpt lat="46.70835" lon="0.53091">
        <ele>121</ele>
        <time>2022-07-11T08:29:26Z</time>
      </trkpt>
      <trkpt lat="46.70882" lon="0.52645">
        <ele>136</ele>
        <time>2022-07-11T08:33:33Z</time>
      </trkpt>
      <trkpt lat="46.71032" lon="0.5273">
        <ele>130</ele>
        <time>2022-07-11T08:35:42Z</time>
      </trkpt>
      <trkpt lat="46.71118" lon="0.52733">
        <ele>124</ele>
        <time>2022-07-11T08:36:51Z</time>
      </trkpt>
      <trkpt lat="46.71191" lon="0.52828">
        <ele>115</ele>
        <time>2022-07-11T08:38:09Z</time>
      </trkpt>
      <trkpt lat="46.71222" lon="0.52772">
        <ele>114</ele>
        <time>2022-07-11T08:38:49Z</time>
      </trkpt>
      <trkpt lat="46.71426" lon="0.52687">
        <ele>95</ele>
        <time>2022-07-11T08:41:39Z</time>
      </trkpt>
      <trkpt lat="46.71602" lon="0.52657">
        <ele>79</ele>
        <time>2022-07-11T08:44:01Z</time>
      </trkpt>
      <trkpt lat="46.7186" lon="0.52718">
        <ele>78</ele>
        <time>2022-07-11T08:47:30Z</time>
      </trkpt>
      <trkpt lat="46.72029" lon="0.52748">
        <ele>74</ele>
        <time>2022-07-11T08:49:46Z</time>
      </trkpt>
      <trkpt lat="46.72199" lon="0.52469">
        <ele>93</ele>
        <time>2022-07-11T08:53:11Z</time>
      </trkpt>
      <trkpt lat="46.72289" lon="0.52454">
        <ele>95</ele>
        <time>2022-07-11T08:54:24Z</time>
      </trkpt>
      <trkpt lat="46.72339" lon="0.52581">
        <ele>86</ele>
        <time>2022-07-11T08:55:44Z</time>
      </trkpt>
      <trkpt lat="46.72466" lon="0.52584">
        <ele>85</ele>
        <time>2022-07-11T08:57:26Z</time>
      </trkpt>
      <trkpt lat="46.7254" lon="0.52468">
        <ele>86.2</ele>
      </trkpt>
      <trkpt lat="46.7247" lon="0.52275">
        <ele>104.2</ele>
      </trkpt>
      <trkpt lat="46.72495" lon="0.5211">
        <ele>122.1</ele>
      </trkpt>
      <trkpt lat="46.72445" lon="0.52035">
        <ele>129.5</ele>
      </trkpt>
      <trkpt lat="46.72418" lon="0.51893">
        <ele>131.1</ele>
      </trkpt>
      <trkpt lat="46.72285" lon="0.51874">
        <ele>139</ele>
        <time>2022-07-11T09:48:33Z</time>
      </trkpt>
      <trkpt lat="46.71921" lon="0.51788">
        <ele>138</ele>
        <time>2022-07-11T09:53:28Z</time>
      </trkpt>
      <trkpt lat="46.71567" lon="0.51752">
        <ele>137</ele>
        <time>2022-07-11T09:58:12Z</time>
      </trkpt>
      <trkpt lat="46.71087" lon="0.51749">
        <ele>138</ele>
        <time>2022-07-11T10:04:37Z</time>
      </trkpt>
      <trkpt lat="46.70364" lon="0.51283">
        <ele>132</ele>
        <time>2022-07-11T10:15:10Z</time>
      </trkpt>
      <trkpt lat="46.70042" lon="0.5111">
        <ele>126</ele>
        <time>2022-07-11T10:19:44Z</time>
      </trkpt>
      <trkpt lat="46.6955" lon="0.52193">
        <ele>110</ele>
        <time>2022-07-11T10:31:38Z</time>
      </trkpt>
      <trkpt lat="46.69201" lon="0.51817">
        <ele>131</ele>
        <time>2022-07-11T10:37:25Z</time>
      </trkpt>
      <trkpt lat="46.6881" lon="0.51428">
        <ele>130</ele>
        <time>2022-07-11T10:43:44Z</time>
      </trkpt>
      <trkpt lat="46.68766" lon="0.51402">
        <ele>126.2</ele>
      </trkpt>
      <trkpt lat="46.68704" lon="0.51417">
        <ele>128.3</ele>
      </trkpt>
      <trkpt lat="46.68641" lon="0.51366">
        <ele>133</ele>
        <time>2022-07-11T10:46:16Z</time>
      </trkpt>
      <trkpt lat="46.68572" lon="0.51348">
        <ele>133</ele>
        <time>2022-07-11T10:47:12Z</time>
      </trkpt>
      <trkpt lat="46.68519" lon="0.51277">
        <ele>129</ele>
      </trkpt>
      <trkpt lat="46.68478" lon="0.51189">
        <ele>133</ele>
        <time>2022-07-11T10:49:07Z</time>
      </trkpt>
      <trkpt lat="46.68442" lon="0.51185">
        <ele>128.4</ele>
      </trkpt>
      <trkpt lat="46.68421" lon="0.51211">
        <ele>133</ele>
        <time>2022-07-11T10:49:54Z</time>
      </trkpt>
      <trkpt lat="46.68413" lon="0.51385">
        <ele>123.4</ele>
      </trkpt>
      <trkpt lat="46.68391" lon="0.51554">
        <ele>124</ele>
        <time>2022-07-11T10:53:04Z</time>
      </trkpt>
      <trkpt lat="46.683" lon="0.51734">
        <ele>110</ele>
        <time>2022-07-11T10:55:07Z</time>
      </trkpt>
      <trkpt lat="46.68198" lon="0.52073">
        <ele>93</ele>
        <time>2022-07-11T10:58:31Z</time>
      </trkpt>
      <trkpt lat="46.67966" lon="0.52373">
        <ele>77</ele>
        <time>2022-07-11T11:02:39Z</time>
      </trkpt>
      <trkpt lat="46.67923" lon="0.52447">
        <ele>75.1</ele>
      </trkpt>
      <trkpt lat="46.67887" lon="0.52548">
        <ele>80.6</ele>
        <time>2022-07-11T11:04:23Z</time>
      </trkpt>
      <trkpt lat="46.67921" lon="0.52669">
        <ele>96</ele>
        <time>2022-07-11T11:05:35Z</time>
      </trkpt>
      <trkpt lat="46.67865" lon="0.52803">
        <ele>98.8</ele>
      </trkpt>
      <trkpt lat="46.678" lon="0.52911">
        <ele>111</ele>
        <time>2022-07-11T11:08:20Z</time>
      </trkpt>
      <trkpt lat="46.67594" lon="0.53499">
        <ele>124</ele>
        <time>2022-07-11T11:14:23Z</time>
      </trkpt>
      <trkpt lat="46.67728" lon="0.53806">
        <ele>113</ele>
        <time>2022-07-11T11:17:42Z</time>
      </trkpt>
      <trkpt lat="46.67758" lon="0.53928">
        <ele>110</ele>
        <time>2022-07-11T11:18:54Z</time>
      </trkpt>
      <trkpt lat="46.67879" lon="0.53928">
        <ele>106</ele>
        <time>2022-07-11T11:20:31Z</time>
      </trkpt>
      <trkpt lat="46.67902" lon="0.5399">
        <ele>110.5</ele>
      </trkpt>
      <trkpt lat="46.67893" lon="0.54146">
        <ele>120.2</ele>
      </trkpt>
    </trkseg>
  </trk>
</gpx>